Мехробод

Таджикистан     40°09′44″N   69°29′45″E
темп.,
°C
ветер,
м/с
пор.,
м/с
влажн.,
%
обл.,
%
осадки,
мм/ч
давл.,
гПа
погр.,
м
10 апреля, сб
сб1023:00+16в33300 0.0 101615
02:00+14в44360 0.0 101650
05:00+13в45450 0.0 101767
08:00+15в59420 0.0 1018373
11:00+20в67250 0.0 1017771
14:00+23всв33190 0.0 10161273
17:00+24зсз22220 0.0 10161668
20:00+19зсз33310 0.0 101717
11 апреля, вс
вс1123:00+17зюз33400 0.0 101732
02:00+15з22450 0.0 101717
05:00+14з33460 0.0 101726
08:00+14з56490 0.0 1019324
11:00+17зсз56430 0.0 1019847
14:00+19зсз55300 0.0 10181100
17:00+18зсз553348 0.0 1017683
20:00+14зсз33475 0.0 101858
12 апреля, пн
пн1223:00+12з34525 0.1 101877
02:00+11з22553 0.0 101829
05:00+10з32590 0.0 101934
08:00+11з33510 0.0 1020315
11:00+15зсз21410 0.0 1018594
14:00+19зсз32361 0.0 1016955
17:00+19зсз4535100 0.0 1016909
20:00+15зсз45495 0.0 1018114
13 апреля, вт
вт1323:00+13зюз3460100 0.0 101881
02:00+12з3463100 0.0 101894
05:00+12зсз3461100 0.0 1019130
08:00+13з2249100 0.0 1019175
11:00+17зсз3341100 0.0 1020527
14:00+18всв0140100 0.0 1019408
17:00+19ю2536100 0.0 10192008
20:00+15юв345194 0.2 1020175
14 апреля, ср
ср1423:00+13всв11547 0.2 101911
02:00+13всв225112 0.0 101811
05:00+13в334811 0.0 101715
08:00+17в35423 0.0 1018262
11:00+22в57350 0.0 10161334
14:00+24в67305 0.0 10131430
17:00+24всв34285 0.0 10121290
20:00+20зсз2241100 0.1 101214